User: anonymous   Login
Location: ?ejkovice
(49.0137°N, 14.3821°E)
Time: 07:37:59
(UTC+00:00)
Language:

IRAS Rocket - Orbit

View from above orbital plane
View from above orbital plane
View from above satellite
View from above satellite

Ground track
Ground track

The orbit data is extracted from the following two-line orbital elements,

1 13778U 83004B   24202.85454038  .00000226  00000-0  16025-3 0  9995
2 13778 100.0583 161.6913 0021169   9.3255 350.8301 14.09381445131627
Epoch (UTC): 20 July 2024 20:30:32
Eccentricity: 0.0021169
inclination: 100.0583°
perigee height: 846 km
apogee height: 877 km
right ascension of ascending node: 161.6913°
argument of perigee: 9.3255°
revolutions per day: 14.09381445
mean anomaly at epoch: 350.8301°
orbit number at epoch: 13162

The dashed part of the orbit path shows where the satellite is in the earth's shadow,  

DLR